Location: Newark
(34.9500°N, 139.9667°E)
Time: 01:32:31
(UTC+00:00)

deb Explorer IX - Pass Details

Date: 12 December 2019
Orbit: 548 x 1101 km, 38.8° (Epoch: 23 January)

Event Time Altitude Azimuth Distance (km) Brightness Sun altitude
Rises 08:54:19 0° 280° (W) 3,422 ? -17.0°
Reaches altitude 10° 08:56:45 10° 284° (WNW) 2,567 ? -17.5°
Maximum altitude 09:02:57 64° 5° (N) 1,092 ? -18.7°
Enters shadow 09:06:17 32° 75° (ENE) 1,696 ? -19.4°
